Location: Saratoga Springs
(43.0831°N, 73.7850°W)
Time: 00:08:28
(UTC-04:00)

S-56A Canister/Altair - Visible Passes

Search period start: 22 April 2024 00:00
Search period end: 02 May 2024 00:00
Orbit: 639 x 2488 km, 38.9° (Epoch: 21 April)

Date Brightness Start Highest point End Pass type
(mag) Time Alt. Az. Time Alt. Az. Time Alt. Az.
22 Apr 10.9 00:27:45 10° WSW 00:29:23 13° WSW 00:29:23 13° WSW visible
22 Apr 9.5 21:48:25 10° W 21:55:33 41° SSW 22:00:08 28° SSE visible
22 Apr 10.6 23:53:48 10° WSW 23:57:28 17° SW 23:57:28 17° SW visible
23 Apr 9.3 21:15:09 10° W 21:21:53 43° SSW 21:28:15 21° SE visible
23 Apr 10.4 23:20:02 10° WSW 23:25:35 20° SW 23:25:35 20° SW visible
24 Apr 9.2 20:41:57 10° W 20:48:15 45° SSW 20:56:23 13° SE visible
24 Apr 10.3 22:46:24 10° WSW 22:52:31 22° SSW 22:53:45 21° SSW visible
25 Apr 9.0 20:08:46 10° W 20:14:41 46° SSW 20:23:24 10° SE visible
25 Apr 10.1 22:12:53 10° WSW 22:18:49 23° SSW 22:21:56 20° S visible
26 Apr 10.0 21:39:28 10° W 21:45:11 24° SSW 21:50:10 16° S visible
27 Apr 9.9 21:06:06 10° W 21:11:35 26° SSW 21:18:26 11° SSE visible
28 Apr 9.7 20:32:48 10° W 20:38:02 27° SSW 20:45:06 10° SSE visible
30 Apr 10.6 21:34:09 10° SW 21:34:48 10° SW 21:35:27 10° SSW visible
01 May 10.5 20:59:25 10° SW 21:01:15 11° SSW 21:03:16 10° SSW visible
